Tracking 19212 objects as of 17-Jul-2018
HD Live streaming from Space Station
objects crossing your sky now

AUREOLE 2

Track AUREOLE 2 now!
10-day predictions
AUREOLE 2 is classified as:


NORAD ID: 7003
Int'l Code: 1973-107A
Perigee: 373.6 km
Apogee: 920.4 km
Inclination: 73.9 °
Period: 97.5 minutes
Semi major axis: 7018 km
RCS: 2.1042 m2 (large)
Launch date: December 26, 1973
Source: France (FR)
Launch site: PLESETSK MISSILE AND SPACE COMPLEX (PKMTR)
aabbcc
Your satellite tracking list
Your tracking list is empty




NASA's NSSDC Master Catalog

Two Line Element Set (TLE):
1  7003U 73107A   18197.89650489 +.00001434 +00000-0 +58795-4 0  9993
2  7003 073.9273 326.5654 0389559 224.9479 131.9551 14.76665520271603
Source of the keplerian elements: AFSPC